^^

..:: Storico WU ::..




Lo storico viene creato da WUnderground con i dati che la stazione Meteomincio invia al loro server. L' aggiornamento viene fatto ogni 5 minuti circa, tuttavia possono esserci intervalli pił ampi a causa di errori, interruzioni di servizio o problemi nell' invio tramite FTP.


Storico stazione MeteoMincio
Giorno Sommario per Ottobre 20, 2022 Unità:  Inglese    Metrico   Entrambi
Giorno Settimana Mese Anno
  Max: Min: Media:
Temperatura: 73.4 °F 53.6 °F 63.3 °F
Dew Point: 64.4 °F 51.8 °F 58.1 °F
Umidità: 92% 67% 84%
Velocità vento: 8.1mph 0mph 2.3mph
Raffica: 11.8mph - -
Direzione- - East
Pressione: 30.2 in 30.1 in -
Precipitazioni: 0 in    
 
 
Tabulato Dati per Ottobre 20, 2022
Ora Temperatura Dew Point Pressione Direzione Velocità vento Raffica Umidità Intensità pioggia (oraria) Info solare Situazione
00:04 60.8 °F 57.2 °F 30.1 in ENE 3.7 mph 5 mph 89% 0 in 0.00 W/m2 unknown
00:09 59 °F 57.2 °F 30.1 in ENE 3.1 mph 5 mph 89% 0 in 0.00 W/m2 unknown
00:14 59 °F 55.4 °F 30.1 in ENE 2.5 mph 3.7 mph 90% 0 in 0.00 W/m2 unknown
00:19 59 °F 55.4 °F 30.1 in ENE 2.5 mph 3.7 mph 90% 0 in 0.00 W/m2 unknown
00:24 59 °F 55.4 °F 30.2 in East 2.5 mph 3.7 mph 90% 0 in 0.00 W/m2 unknown
00:29 59 °F 57.2 °F 30.1 in East 3.1 mph 3.7 mph 90% 0 in 0.00 W/m2 unknown
00:34 59 °F 57.2 °F 30.1 in East 3.1 mph 5 mph 90% 0 in 0.00 W/m2 unknown
00:39 59 °F 57.2 °F 30.1 in East 2.5 mph 5 mph 90% 0 in 0.00 W/m2 unknown
00:44 59 °F 57.2 °F 30.1 in ENE 2.5 mph 3.7 mph 90% 0 in 0.00 W/m2 unknown
00:49 59 °F 57.2 °F 30.1 in ENE 1.9 mph 3.7 mph 90% 0 in 0.00 W/m2 unknown
00:54 59 °F 55.4 °F 30.1 in ENE 1.9 mph 3.7 mph 90% 0 in 0.00 W/m2 unknown
00:59 59 °F 55.4 °F 30.1 in ENE 1.9 mph 3.7 mph 90% 0 in 0.00 W/m2 unknown
01:04 59 °F 55.4 °F 30.1 in NE 1.9 mph 3.1 mph 90% 0 in 0.00 W/m2 unknown
01:09 59 °F 55.4 °F 30.2 in NE 1.9 mph 2.5 mph 90% 0 in 0.00 W/m2 unknown
01:14 59 °F 55.4 °F 30.1 in NE 2.5 mph 3.7 mph 90% 0 in 0.00 W/m2 unknown
01:19 59 °F 55.4 °F 30.2 in NE 3.1 mph 3.7 mph 90% 0 in 0.00 W/m2 unknown
01:24 59 °F 55.4 °F 30.2 in NE 3.1 mph 3.7 mph 90% 0 in 0.00 W/m2 unknown
01:29 59 °F 55.4 °F 30.2 in NE 3.7 mph 5 mph 90% 0 in 0.00 W/m2 unknown
01:34 59 °F 55.4 °F 30.2 in ENE 3.7 mph 5 mph 89% 0 in 0.00 W/m2 unknown
01:39 59 °F 55.4 °F 30.2 in ENE 2.5 mph 5 mph 89% 0 in 0.00 W/m2 unknown
01:44 59 °F 55.4 °F 30.2 in NE 2.5 mph 3.7 mph 90% 0 in 0.00 W/m2 unknown
01:49 59 °F 55.4 °F 30.2 in NE 2.5 mph 3.7 mph 90% 0 in 0.00 W/m2 unknown
01:54 59 °F 55.4 °F 30.2 in NE 1.9 mph 3.7 mph 90% 0 in 0.00 W/m2 unknown
01:59 59 °F 55.4 °F 30.2 in NE 1.9 mph 3.7 mph 90% 0 in 0.00 W/m2 unknown
02:04 59 °F 55.4 °F 30.2 in NE 1.9 mph 3.1 mph 90% 0 in 0.00 W/m2 unknown
02:09 59 °F 55.4 °F 30.2 in NE 1.2 mph 1.9 mph 90% 0 in 0.00 W/m2 unknown
02:14 59 °F 55.4 °F 30.2 in NNE 1.2 mph 2.5 mph 90% 0 in 0.00 W/m2 unknown
02:19 59 °F 55.4 °F 30.2 in NNE 2.5 mph 3.7 mph 90% 0 in 0.00 W/m2 unknown
02:24 59 °F 55.4 °F 30.2 in NE 3.1 mph 3.7 mph 89% 0 in 0.00 W/m2 unknown
02:29 59 °F 55.4 °F 30.2 in NE 3.1 mph 3.7 mph 89% 0 in 0.00 W/m2 unknown
02:34 59 °F 55.4 °F 30.2 in NE 3.1 mph 5 mph 89% 0 in 0.00 W/m2 unknown
02:39 59 °F 55.4 °F 30.2 in NE 3.7 mph 5 mph 88% 0 in 0.00 W/m2 unknown
02:44 59 °F 55.4 °F 30.2 in NE 3.7 mph 5 mph 88% 0 in 0.00 W/m2 unknown
02:49 59 °F 55.4 °F 30.2 in ENE 3.1 mph 5 mph 88% 0 in 0.00 W/m2 unknown
02:54 59 °F 55.4 °F 30.2 in ENE 3.1 mph 3.7 mph 88% 0 in 0.00 W/m2 unknown
02:59 59 °F 55.4 °F 30.2 in NE 3.1 mph 3.7 mph 88% 0 in 0.00 W/m2 unknown
03:04 57.2 °F 53.6 °F 30.2 in NE 3.1 mph 3.7 mph 88% 0 in 0.00 W/m2 unknown
03:09 57.2 °F 55.4 °F 30.2 in NE 3.7 mph 5 mph 89% 0 in 0.00 W/m2 unknown
03:14 57.2 °F 55.4 °F 30.1 in ENE 3.1 mph 5 mph 89% 0 in 0.00 W/m2 unknown
03:19 57.2 °F 55.4 °F 30.2 in ENE 2.5 mph 5 mph 89% 0 in 0.00 W/m2 unknown
03:24 57.2 °F 53.6 °F 30.2 in NE 3.1 mph 3.7 mph 89% 0 in 0.00 W/m2 unknown
03:29 57.2 °F 55.4 °F 30.2 in NE 3.1 mph 3.7 mph 89% 0 in 0.00 W/m2 unknown
03:34 57.2 °F 55.4 °F 30.2 in NE 3.1 mph 3.7 mph 89% 0 in 0.00 W/m2 unknown
03:39 59 °F 55.4 °F 30.2 in NE 3.1 mph 3.7 mph 89% 0 in 0.00 W/m2 unknown
03:44 59 °F 55.4 °F 30.1 in NE 3.1 mph 3.7 mph 88% 0 in 0.00 W/m2 unknown
03:49 59 °F 55.4 °F 30.1 in NE 4.3 mph 5 mph 88% 0 in 0.00 W/m2 unknown
03:54 59 °F 55.4 °F 30.1 in NE 3.1 mph 5 mph 88% 0 in 0.00 W/m2 unknown
03:59 59 °F 55.4 °F 30.1 in NE 3.7 mph 5 mph 88% 0 in 0.00 W/m2 unknown
04:04 59 °F 53.6 °F 30.1 in NE 3.7 mph 5 mph 87% 0 in 0.00 W/m2 unknown
04:09 59 °F 53.6 °F 30.1 in NE 3.7 mph 5 mph 87% 0 in 0.00 W/m2 unknown
04:14 59 °F 53.6 °F 30.1 in NE 3.1 mph 3.7 mph 87% 0 in 0.00 W/m2 unknown
04:19 57.2 °F 55.4 °F 30.1 in NE 3.1 mph 3.7 mph 88% 0 in 0.00 W/m2 unknown
04:24 57.2 °F 53.6 °F 30.2 in NE 3.7 mph 3.7 mph 88% 0 in 0.00 W/m2 unknown
04:29 57.2 °F 53.6 °F 30.1 in NE 3.7 mph 5 mph 88% 0 in 0.00 W/m2 unknown
04:34 57.2 °F 55.4 °F 30.1 in NE 3.7 mph 5 mph 88% 0 in 0.00 W/m2 unknown
04:39 57.2 °F 55.4 °F 30.1 in NE 3.7 mph 5 mph 88% 0 in 0.00 W/m2 unknown
04:44 59 °F 55.4 °F 30.1 in NE 4.3 mph 5 mph 88% 0 in 0.00 W/m2 unknown
04:49 59 °F 55.4 °F 30.1 in NE 3.7 mph 5 mph 88% 0 in 0.00 W/m2 unknown
04:54 59 °F 55.4 °F 30.2 in NE 3.7 mph 5 mph 88% 0 in 0.00 W/m2 unknown
04:59 59 °F 55.4 °F 30.2 in NE 3.7 mph 5 mph 88% 0 in 0.00 W/m2 unknown
05:04 57.2 °F 55.4 °F 30.2 in NE 3.1 mph 5 mph 88% 0 in 0.00 W/m2 unknown
05:09 57.2 °F 53.6 °F 30.2 in NE 3.7 mph 5 mph 88% 0 in 0.00 W/m2 unknown
05:14 57.2 °F 53.6 °F 30.2 in NE 3.1 mph 3.7 mph 88% 0 in 0.00 W/m2 unknown
05:19 57.2 °F 53.6 °F 30.2 in ENE 3.1 mph 5 mph 88% 0 in 0.00 W/m2 unknown
05:24 57.2 °F 53.6 °F 30.2 in East 3.1 mph 5 mph 89% 0 in 0.00 W/m2 unknown
05:29 57.2 °F 53.6 °F 30.2 in East 1.2 mph 2.5 mph 89% 0 in 0.00 W/m2 unknown
05:34 55.4 °F 53.6 °F 30.2 in East 1.2 mph 2.5 mph 92% 0 in 0.00 W/m2 unknown
05:39 55.4 °F 53.6 °F 30.2 in East 1.2 mph 2.5 mph 90% 0 in 0.00 W/m2 unknown
05:44 55.4 °F 53.6 °F 30.2 in East 1.2 mph 2.5 mph 91% 0 in 0.00 W/m2 unknown
05:49 55.4 °F 53.6 °F 30.2 in Calm     91% 0 in 0.00 W/m2 unknown
05:54 55.4 °F 53.6 °F 30.2 in Calm     91% 0 in 0.00 W/m2 unknown
05:59 55.4 °F 53.6 °F 30.2 in Calm     91% 0 in 0.00 W/m2 unknown
06:04 55.4 °F 53.6 °F 30.2 in Calm     91% 0 in 0.00 W/m2 unknown
06:09 55.4 °F 53.6 °F 30.2 in Calm     91% 0 in 0.00 W/m2 unknown
06:14 55.4 °F 53.6 °F 30.2 in Calm     91% 0 in 0.00 W/m2 unknown
06:19 55.4 °F 53.6 °F 30.2 in Calm     91% 0 in 0.00 W/m2 unknown
06:24 55.4 °F 53.6 °F 30.2 in Calm     91% 0 in 0.00 W/m2 unknown
06:29 55.4 °F 51.8 °F 30.2 in Calm     91% 0 in 0.00 W/m2 unknown
06:34 55.4 °F 51.8 °F 30.2 in Calm     91% 0 in 0.00 W/m2 unknown
06:39 55.4 °F 51.8 °F 30.2 in Calm     91% 0 in 0.00 W/m2 unknown
06:44 55.4 °F 51.8 °F 30.2 in Calm     91% 0 in 0.00 W/m2 unknown
06:49 55.4 °F 51.8 °F 30.2 in Calm     91% 0 in 0.00 W/m2 unknown
06:54 55.4 °F 51.8 °F 30.2 in Calm     91% 0 in 0.00 W/m2 unknown
06:59 55.4 °F 51.8 °F 30.2 in Calm     91% 0 in 0.00 W/m2 unknown
07:04 55.4 °F 51.8 °F 30.2 in Calm     91% 0 in 0.00 W/m2 unknown
07:09 55.4 °F 51.8 °F 30.2 in Calm     91% 0 in 0.00 W/m2 unknown
07:14 53.6 °F 51.8 °F 30.2 in Calm     92% 0 in 0.00 W/m2 unknown
07:19 53.6 °F 51.8 °F 30.2 in Calm     92% 0 in 0.00 W/m2 unknown
07:24 53.6 °F 51.8 °F 30.2 in Calm     92% 0 in 0.00 W/m2 unknown
07:29 53.6 °F 51.8 °F 30.2 in Calm     92% 0 in 0.00 W/m2 unknown
07:34 53.6 °F 51.8 °F 30.2 in Calm     92% 0 in 7.00 W/m2 unknown
07:39 53.6 °F 51.8 °F 30.2 in Calm     92% 0 in 9.00 W/m2 unknown
07:44 53.6 °F 51.8 °F 30.2 in Calm     92% 0 in 11.00 W/m2 unknown
07:49 53.6 °F 51.8 °F 30.2 in Calm     92% 0 in 16.00 W/m2 unknown
07:54 53.6 °F 51.8 °F 30.2 in Calm     92% 0 in 19.00 W/m2 unknown
07:59 53.6 °F 51.8 °F 30.2 in Calm     92% 0 in 26.00 W/m2 unknown
08:04 53.6 °F 51.8 °F 30.2 in Calm     92% 0 in 32.00 W/m2 unknown
08:09 53.6 °F 51.8 °F 30.2 in Calm     92% 0 in 33.00 W/m2 unknown
08:14 53.6 °F 51.8 °F 30.2 in Calm     92% 0 in 35.00 W/m2 unknown
08:19 55.4 °F 51.8 °F 30.2 in Calm     92% 0 in 49.00 W/m2 unknown
08:24 55.4 °F 53.6 °F 30.2 in Calm     92% 0 in 56.00 W/m2 unknown
08:29 55.4 °F 53.6 °F 30.2 in Calm     92% 0 in 70.00 W/m2 unknown
08:34 55.4 °F 53.6 °F 30.2 in Calm     91% 0 in 79.00 W/m2 unknown
08:39 55.4 °F 53.6 °F 30.2 in Calm     91% 0 in 84.00 W/m2 unknown
08:44 55.4 °F 53.6 °F 30.2 in Calm     91% 0 in 81.00 W/m2 unknown
08:49 57.2 °F 53.6 °F 30.2 in Calm     90% 0 in 93.00 W/m2 unknown
08:54 57.2 °F 53.6 °F 30.2 in Calm     90% 0 in 121.00 W/m2 unknown
08:59 57.2 °F 53.6 °F 30.2 in Calm     90% 0 in 135.00 W/m2 unknown
09:04 57.2 °F 55.4 °F 30.2 in Calm     90% 0 in 171.00 W/m2 unknown
09:09 59 °F 55.4 °F 30.2 in Calm     89% 0 in 174.00 W/m2 unknown
09:14 59 °F 55.4 °F 30.2 in Calm     89% 0 in 174.00 W/m2 unknown
09:19 59 °F 55.4 °F 30.2 in East 1.9 mph 3.7 mph 88% 0 in 144.00 W/m2 unknown
09:24 59 °F 55.4 °F 30.2 in East 1.2 mph 3.1 mph 88% 0 in 146.00 W/m2 unknown
09:29 60.8 °F 57.2 °F 30.2 in ENE 2.5 mph 3.7 mph 88% 0 in 162.00 W/m2 unknown
09:34 60.8 °F 57.2 °F 30.2 in East 2.5 mph 3.7 mph 88% 0 in 153.00 W/m2 unknown
09:39 60.8 °F 57.2 °F 30.2 in East 2.5 mph 3.7 mph 88% 0 in 193.00 W/m2 unknown
09:44 60.8 °F 57.2 °F 30.2 in East 1.9 mph 3.7 mph 88% 0 in 193.00 W/m2 unknown
09:49 60.8 °F 57.2 °F 30.2 in East 1.2 mph 3.1 mph 88% 0 in 178.00 W/m2 unknown
09:54 60.8 °F 57.2 °F 30.2 in Calm   1.9 mph 88% 0 in 156.00 W/m2 unknown
09:59 62.6 °F 57.2 °F 30.2 in WSW 2.5 mph 3.7 mph 87% 0 in 141.00 W/m2 unknown
10:04 62.6 °F 57.2 °F 30.2 in West 2.5 mph 3.7 mph 86% 0 in 153.00 W/m2 unknown
10:09 62.6 °F 57.2 °F 30.2 in West 1.2 mph 3.1 mph 86% 0 in 165.00 W/m2 unknown
10:14 62.6 °F 57.2 °F 30.2 in SW 0.6 mph 1.2 mph 85% 0 in 188.00 W/m2 unknown
10:19 62.6 °F 57.2 °F 30.2 in SSE 0.6 mph 2.5 mph 85% 0 in 192.00 W/m2 unknown
10:24 62.6 °F 57.2 °F 30.2 in Calm   1.9 mph 85% 0 in 195.00 W/m2 unknown
10:29 62.6 °F 57.2 °F 30.2 in Calm   1.2 mph 84% 0 in 192.00 W/m2 unknown
10:34 62.6 °F 57.2 °F 30.2 in Calm   1.2 mph 83% 0 in 185.00 W/m2 unknown
10:39 62.6 °F 57.2 °F 30.2 in Calm     83% 0 in 186.00 W/m2 unknown
10:44 64.4 °F 59 °F 30.2 in WSW 1.2 mph 2.5 mph 83% 0 in 225.00 W/m2 unknown
10:49 64.4 °F 59 °F 30.2 in WSW 1.2 mph 3.1 mph 83% 0 in 276.00 W/m2 unknown
10:54 64.4 °F 59 °F 30.2 in WSW 1.9 mph 3.7 mph 83% 0 in 236.00 W/m2 unknown
10:59 64.4 °F 59 °F 30.2 in SW 1.2 mph 3.1 mph 83% 0 in 229.00 W/m2 unknown
11:04 64.4 °F 59 °F 30.2 in SW 1.9 mph 3.7 mph 82% 0 in 223.00 W/m2 unknown
11:09 64.4 °F 59 °F 30.2 in WSW 1.9 mph 3.7 mph 82% 0 in 253.00 W/m2 unknown
11:14 66.2 °F 59 °F 30.2 in WSW 0.6 mph 1.9 mph 81% 0 in 230.00 W/m2 unknown
11:19 66.2 °F 59 °F 30.2 in WSW 1.9 mph 2.5 mph 81% 0 in 225.00 W/m2 unknown
11:24 66.2 °F 60.8 °F 30.2 in WSW 1.9 mph 3.1 mph 81% 0 in 297.00 W/m2 unknown
11:29 66.2 °F 60.8 °F 30.2 in WSW 2.5 mph 3.7 mph 80% 0 in 538.00 W/m2 unknown
11:34 68 °F 60.8 °F 30.2 in West 3.1 mph 3.7 mph 80% 0 in 515.00 W/m2 unknown
11:39 68 °F 60.8 °F 30.2 in WSW 3.1 mph 3.7 mph 79% 0 in 508.00 W/m2 unknown
11:44 68 °F 60.8 °F 30.2 in SW 1.9 mph 3.7 mph 79% 0 in 504.00 W/m2 unknown
11:49 68 °F 60.8 °F 30.2 in South 1.2 mph 3.1 mph 78% 0 in 487.00 W/m2 unknown
11:54 68 °F 60.8 °F 30.2 in South 1.2 mph 2.5 mph 77% 0 in 468.00 W/m2 unknown
11:59 69.8 °F 62.6 °F 30.2 in SE 2.5 mph 3.7 mph 78% 0 in 469.00 W/m2 unknown
12:04 69.8 °F 62.6 °F 30.2 in ESE 3.1 mph 6.8 mph 78% 0 in 480.00 W/m2 unknown
12:09 69.8 °F 62.6 °F 30.2 in ESE 6.2 mph 8.1 mph 77% 0 in 473.00 W/m2 unknown
12:14 69.8 °F 62.6 °F 30.2 in East 5 mph 8.1 mph 78% 0 in 452.00 W/m2 unknown
12:19 69.8 °F 62.6 °F 30.2 in ESE 3.1 mph 5 mph 77% 0 in 478.00 W/m2 unknown
12:24 69.8 °F 62.6 °F 30.2 in SE 3.1 mph 5 mph 77% 0 in 494.00 W/m2 unknown
12:29 69.8 °F 62.6 °F 30.2 in SSE 3.7 mph 5 mph 77% 0 in 483.00 W/m2 unknown
12:34 69.8 °F 62.6 °F 30.2 in ESE 3.1 mph 5 mph 77% 0 in 492.00 W/m2 unknown
12:39 69.8 °F 62.6 °F 30.2 in SE 3.1 mph 5 mph 77% 0 in 492.00 W/m2 unknown
12:44 71.6 °F 62.6 °F 30.2 in SE 2.5 mph 5 mph 77% 0 in 482.00 W/m2 unknown
12:49 71.6 °F 64.4 °F 30.2 in East 4.3 mph 6.8 mph 77% 0 in 497.00 W/m2 unknown
12:54 71.6 °F 64.4 °F 30.2 in East 5 mph 8.7 mph 77% 0 in 497.00 W/m2 unknown
12:59 71.6 °F 62.6 °F 30.2 in ESE 6.2 mph 9.3 mph 75% 0 in 462.00 W/m2 unknown
13:04 71.6 °F 62.6 °F 30.2 in SE 6.2 mph 8.7 mph 75% 0 in 510.00 W/m2 unknown
13:09 71.6 °F 64.4 °F 30.2 in ESE 5 mph 6.8 mph 75% 0 in 490.00 W/m2 unknown
13:14 71.6 °F 64.4 °F 30.2 in ESE 6.8 mph 9.3 mph 75% 0 in 496.00 W/m2 unknown
13:19 71.6 °F 62.6 °F 30.2 in East 5.6 mph 8.1 mph 73% 0 in 496.00 W/m2 unknown
13:24 73.4 °F 62.6 °F 30.2 in East 5 mph 9.3 mph 72% 0 in 478.00 W/m2 unknown
13:29 73.4 °F 62.6 °F 30.2 in East 6.8 mph 11.8 mph 72% 0 in 450.00 W/m2 unknown
13:34 73.4 °F 62.6 °F 30.2 in East 6.2 mph 11.8 mph 72% 0 in 450.00 W/m2 unknown
13:39 73.4 °F 62.6 °F 30.2 in ENE 6.8 mph 11.8 mph 72% 0 in 385.00 W/m2 unknown
13:44 73.4 °F 62.6 °F 30.2 in ENE 6.8 mph 9.3 mph 72% 0 in 353.00 W/m2 unknown
13:49 73.4 °F 62.6 °F 30.2 in East 5.6 mph 8.1 mph 72% 0 in 345.00 W/m2 unknown
13:54 73.4 °F 62.6 °F 30.2 in ENE 6.2 mph 8.1 mph 71% 0 in 345.00 W/m2 unknown
13:59 73.4 °F 62.6 °F 30.2 in ENE 6.8 mph 9.9 mph 72% 0 in 362.00 W/m2 unknown
14:04 73.4 °F 62.6 °F 30.2 in East 7.5 mph 10.6 mph 70% 0 in 327.00 W/m2 unknown
14:09 73.4 °F 62.6 °F 30.2 in East 6.2 mph 9.3 mph 70% 0 in 279.00 W/m2 unknown
14:14 73.4 °F 62.6 °F 30.2 in East 6.2 mph 9.3 mph 70% 0 in 332.00 W/m2 unknown
14:19 73.4 °F 62.6 °F 30.2 in East 6.2 mph 9.3 mph 69% 0 in 325.00 W/m2 unknown
14:24 73.4 °F 62.6 °F 30.2 in East 6.2 mph 8.7 mph 69% 0 in 371.00 W/m2 unknown
14:29 73.4 °F 62.6 °F 30.2 in East 8.1 mph 9.3 mph 69% 0 in 418.00 W/m2 unknown
14:34 73.4 °F 62.6 °F 30.1 in East 7.5 mph 9.9 mph 67% 0 in 439.00 W/m2 unknown
14:39 73.4 °F 62.6 °F 30.1 in ENE 6.2 mph 9.9 mph 67% 0 in 432.00 W/m2 unknown
14:44 73.4 °F 62.6 °F 30.1 in East 6.2 mph 8.1 mph 67% 0 in 432.00 W/m2 unknown
14:49 73.4 °F 62.6 °F 30.1 in East 8.1 mph 11.8 mph 68% 0 in 408.00 W/m2 unknown
14:54 73.4 °F 62.6 °F 30.1 in ENE 6.8 mph 11.8 mph 68% 0 in 295.00 W/m2 unknown
14:59 73.4 °F 62.6 °F 30.1 in East 8.1 mph 10.6 mph 69% 0 in 223.00 W/m2 unknown
15:04 73.4 °F 62.6 °F 30.1 in East 6.8 mph 9.9 mph 68% 0 in 276.00 W/m2 unknown
15:09 73.4 °F 62.6 °F 30.1 in East 6.8 mph 8.1 mph 68% 0 in 287.00 W/m2 unknown
15:14 73.4 °F 62.6 °F 30.1 in ENE 5 mph 6.8 mph 68% 0 in 243.00 W/m2 unknown
15:19 73.4 °F 62.6 °F 30.1 in East 3.7 mph 6.8 mph 68% 0 in 336.00 W/m2 unknown
15:24 73.4 °F 62.6 °F 30.1 in East 4.3 mph 6.8 mph 69% 0 in 253.00 W/m2 unknown
15:29 73.4 °F 62.6 °F 30.1 in East 4.3 mph 6.8 mph 69% 0 in 214.00 W/m2 unknown
15:34 73.4 °F 62.6 °F 30.1 in ESE 3.1 mph 6.8 mph 69% 0 in 204.00 W/m2 unknown
15:39 73.4 °F 62.6 °F 30.1 in ESE 3.1 mph 5 mph 70% 0 in 204.00 W/m2 unknown
15:44 73.4 °F 62.6 °F 30.1 in ESE 2.5 mph 3.7 mph 70% 0 in 174.00 W/m2 unknown
15:49 73.4 °F 62.6 °F 30.1 in ESE 3.7 mph 5 mph 70% 0 in 146.00 W/m2 unknown
15:54 71.6 °F 62.6 °F 30.1 in ESE 3.1 mph 5 mph 72% 0 in 151.00 W/m2 unknown
15:59 71.6 °F 62.6 °F 30.1 in ESE 4.3 mph 6.2 mph 72% 0 in 156.00 W/m2 unknown
16:04 71.6 °F 62.6 °F 30.1 in ESE 3.1 mph 6.2 mph 71% 0 in 171.00 W/m2 unknown
16:09 71.6 °F 62.6 °F 30.1 in ESE 3.1 mph 5 mph 71% 0 in 176.00 W/m2 unknown
16:14 71.6 °F 62.6 °F 30.1 in ESE 2.5 mph 5 mph 72% 0 in 202.00 W/m2 unknown
16:19 71.6 °F 62.6 °F 30.1 in East 3.1 mph 5 mph 72% 0 in 234.00 W/m2 unknown
16:24 73.4 °F 62.6 °F 30.1 in East 3.1 mph 5 mph 72% 0 in 232.00 W/m2 unknown
16:29 73.4 °F 62.6 °F 30.1 in ESE 3.1 mph 3.7 mph 72% 0 in 186.00 W/m2 unknown
16:34 73.4 °F 62.6 °F 30.1 in East 3.1 mph 3.7 mph 71% 0 in 151.00 W/m2 unknown
16:39 73.4 °F 62.6 °F 30.1 in East 1.9 mph 3.7 mph 71% 0 in 135.00 W/m2 unknown
16:44 71.6 °F 62.6 °F 30.1 in ESE 2.5 mph 5 mph 72% 0 in 130.00 W/m2 unknown
16:49 71.6 °F 62.6 °F 30.1 in East 2.5 mph 5 mph 72% 0 in 118.00 W/m2 unknown
16:54 71.6 °F 62.6 °F 30.1 in East 2.5 mph 5 mph 73% 0 in 111.00 W/m2 unknown
16:59 71.6 °F 62.6 °F 30.1 in East 1.9 mph 5 mph 73% 0 in 104.00 W/m2 unknown
17:04 71.6 °F 62.6 °F 30.1 in ESE 1.9 mph 3.7 mph 73% 0 in 84.00 W/m2 unknown
17:09 71.6 °F 62.6 °F 30.1 in East 2.5 mph 3.7 mph 73% 0 in 77.00 W/m2 unknown
17:14 71.6 °F 62.6 °F 30.1 in East 2.5 mph 3.7 mph 74% 0 in 67.00 W/m2 unknown
17:19 71.6 °F 62.6 °F 30.1 in East 1.2 mph 3.1 mph 75% 0 in 60.00 W/m2 unknown
17:24 71.6 °F 62.6 °F 30.1 in East 1.2 mph 2.5 mph 75% 0 in 54.00 W/m2 unknown
17:29 71.6 °F 62.6 °F 30.1 in Calm   1.9 mph 75% 0 in 51.00 W/m2 unknown
17:34 71.6 °F 62.6 °F 30.1 in Calm     75% 0 in 53.00 W/m2 unknown
17:39 71.6 °F 62.6 °F 30.1 in Calm     75% 0 in 53.00 W/m2 unknown
17:44 71.6 °F 62.6 °F 30.1 in Calm     76% 0 in 53.00 W/m2 unknown
17:49 69.8 °F 62.6 °F 30.1 in Calm     76% 0 in 46.00 W/m2 unknown
17:54 69.8 °F 62.6 °F 30.1 in Calm     76% 0 in 37.00 W/m2 unknown
17:59 69.8 °F 62.6 °F 30.1 in Calm     78% 0 in 26.00 W/m2 unknown
18:04 69.8 °F 62.6 °F 30.1 in Calm     79% 0 in 18.00 W/m2 unknown
18:09 69.8 °F 62.6 °F 30.1 in Calm     79% 0 in 12.00 W/m2 unknown
18:14 69.8 °F 62.6 °F 30.1 in Calm     79% 0 in 9.00 W/m2 unknown
18:19 68 °F 62.6 °F 30.1 in Calm     81% 0 in 5.00 W/m2 unknown
18:24 68 °F 62.6 °F 30.1 in Calm     82% 0 in 0.00 W/m2 unknown
18:29 68 °F 62.6 °F 30.1 in Calm     82% 0 in 0.00 W/m2 unknown
18:34 68 °F 62.6 °F 30.1 in Calm     82% 0 in 0.00 W/m2 unknown
18:39 68 °F 62.6 °F 30.1 in Calm     83% 0 in 0.00 W/m2 unknown
18:44 68 °F 62.6 °F 30.1 in Calm     83% 0 in 0.00 W/m2 unknown
18:49 66.2 °F 60.8 °F 30.1 in Calm     83% 0 in 0.00 W/m2 unknown
18:54 66.2 °F 60.8 °F 30.1 in Calm     84% 0 in 0.00 W/m2 unknown
18:59 66.2 °F 60.8 °F 30.1 in Calm     84% 0 in 0.00 W/m2 unknown
19:04 66.2 °F 60.8 °F 30.1 in Calm     84% 0 in 0.00 W/m2 unknown
19:09 66.2 °F 60.8 °F 30.1 in Calm     85% 0 in 0.00 W/m2 unknown
19:14 66.2 °F 60.8 °F 30.1 in Calm     85% 0 in 0.00 W/m2 unknown
19:19 66.2 °F 60.8 °F 30.1 in Calm     84% 0 in 0.00 W/m2 unknown
19:24 66.2 °F 60.8 °F 30.1 in Calm     85% 0 in 0.00 W/m2 unknown
19:29 66.2 °F 60.8 °F 30.1 in Calm     85% 0 in 0.00 W/m2 unknown
19:34 64.4 °F 60.8 °F 30.1 in East 1.2 mph 1.9 mph 85% 0 in 0.00 W/m2 unknown
19:39 64.4 °F 60.8 °F 30.1 in East 2.5 mph 3.7 mph 85% 0 in 0.00 W/m2 unknown
19:44 64.4 °F 60.8 °F 30.1 in East 1.9 mph 3.1 mph 86% 0 in 0.00 W/m2 unknown
19:49 64.4 °F 60.8 °F 30.1 in East 1.2 mph 2.5 mph 86% 0 in 0.00 W/m2 unknown
19:54 64.4 °F 60.8 °F 30.1 in East 1.2 mph 2.5 mph 86% 0 in 0.00 W/m2 unknown
19:59 64.4 °F 59 °F 30.1 in East 0.6 mph 1.9 mph 87% 0 in 0.00 W/m2 unknown
20:04 64.4 °F 59 °F 30.1 in East 0.6 mph 1.2 mph 87% 0 in 0.00 W/m2 unknown
20:09 62.6 °F 59 °F 30.1 in Calm   1.2 mph 87% 0 in 0.00 W/m2 unknown
20:14 62.6 °F 59 °F 30.1 in Calm     87% 0 in 0.00 W/m2 unknown
20:19 62.6 °F 59 °F 30.1 in Calm   1.2 mph 88% 0 in 0.00 W/m2 unknown
20:24 62.6 °F 59 °F 30.1 in SSW 1.9 mph 3.7 mph 88% 0 in 0.00 W/m2 unknown
20:29 62.6 °F 59 °F 30.1 in WSW 1.2 mph 3.1 mph 88% 0 in 0.00 W/m2 unknown
20:34 62.6 °F 59 °F 30.1 in WSW 1.9 mph 2.5 mph 87% 0 in 0.00 W/m2 unknown
20:39 62.6 °F 59 °F 30.1 in West 1.2 mph 2.5 mph 87% 0 in 0.00 W/m2 unknown
20:44 62.6 °F 59 °F 30.1 in West 0.6 mph 2.5 mph 86% 0 in 0.00 W/m2 unknown
20:49 62.6 °F 59 °F 30.1 in West 1.2 mph 2.5 mph 87% 0 in 0.00 W/m2 unknown
20:54 62.6 °F 59 °F 30.1 in West 0.6 mph 1.9 mph 87% 0 in 0.00 W/m2 unknown
20:59 62.6 °F 59 °F 30.1 in West 0.6 mph 1.2 mph 87% 0 in 0.00 W/m2 unknown
21:04 62.6 °F 59 °F 30.1 in West 0.6 mph 1.2 mph 87% 0 in 0.00 W/m2 unknown
21:09 62.6 °F 59 °F 30.1 in Calm   1.2 mph 88% 0 in 0.00 W/m2 unknown
21:14 62.6 °F 59 °F 30.1 in North 1.9 mph 2.5 mph 88% 0 in 0.00 W/m2 unknown
21:19 62.6 °F 59 °F 30.1 in ENE 2.5 mph 3.7 mph 88% 0 in 0.00 W/m2 unknown
21:24 62.6 °F 59 °F 30.1 in ENE 1.9 mph 3.1 mph 89% 0 in 0.00 W/m2 unknown
21:29 60.8 °F 59 °F 30.1 in NE 1.9 mph 3.1 mph 89% 0 in 0.00 W/m2 unknown
21:34 62.6 °F 59 °F 30.1 in North 1.9 mph 3.7 mph 89% 0 in 0.00 W/m2 unknown
21:39 62.6 °F 59 °F 30.1 in North 1.9 mph 3.7 mph 89% 0 in 0.00 W/m2 unknown
21:44 62.6 °F 59 °F 30.1 in North 1.9 mph 3.7 mph 89% 0 in 0.00 W/m2 unknown
21:49 62.6 °F 59 °F 30.1 in North 1.9 mph 3.1 mph 88% 0 in 0.00 W/m2 unknown
21:54 62.6 °F 59 °F 30.1 in North 1.9 mph 2.5 mph 88% 0 in 0.00 W/m2 unknown
21:59 62.6 °F 59 °F 30.1 in NNE 2.5 mph 3.1 mph 88% 0 in 0.00 W/m2 unknown
22:04 62.6 °F 59 °F 30.1 in ENE 3.1 mph 3.7 mph 89% 0 in 0.00 W/m2 unknown
22:09 62.6 °F 59 °F 30.1 in NE 3.1 mph 3.7 mph 89% 0 in 0.00 W/m2 unknown
22:14 62.6 °F 59 °F 30.1 in NE 3.1 mph 3.7 mph 89% 0 in 0.00 W/m2 unknown
22:19 62.6 °F 59 °F 30.1 in NE 1.9 mph 3.1 mph 88% 0 in 0.00 W/m2 unknown
22:24 62.6 °F 59 °F 30.1 in NNE 1.9 mph 3.7 mph 89% 0 in 0.00 W/m2 unknown
22:29 60.8 °F 59 °F 30.1 in NNE 2.5 mph 3.7 mph 89% 0 in 0.00 W/m2 unknown
22:34 60.8 °F 59 °F 30.1 in NNE 1.9 mph 3.1 mph 89% 0 in 0.00 W/m2 unknown
22:39 60.8 °F 59 °F 30.1 in NNE 1.2 mph 2.5 mph 89% 0 in 0.00 W/m2 unknown
22:44 60.8 °F 57.2 °F 30.1 in NNE 1.2 mph 2.5 mph 89% 0 in 0.00 W/m2 unknown
22:49 60.8 °F 57.2 °F 30.1 in NE 2.5 mph 3.7 mph 89% 0 in 0.00 W/m2 unknown
22:54 60.8 °F 57.2 °F 30.1 in NE 2.5 mph 3.7 mph 89% 0 in 0.00 W/m2 unknown
22:59 60.8 °F 57.2 °F 30.1 in NE 2.5 mph 3.7 mph 89% 0 in 0.00 W/m2 unknown
23:04 60.8 °F 57.2 °F 30.1 in NE 2.5 mph 3.7 mph 89% 0 in 0.00 W/m2 unknown
23:09 60.8 °F 57.2 °F 30.1 in NE 2.5 mph 3.7 mph 89% 0 in 0.00 W/m2 unknown
23:14 60.8 °F 57.2 °F 30.1 in ENE 2.5 mph 3.7 mph 90% 0 in 0.00 W/m2 unknown
23:19 60.8 °F 57.2 °F 30.1 in NE 3.1 mph 5 mph 90% 0 in 0.00 W/m2 unknown
23:24 60.8 °F 59 °F 30.1 in ENE 3.1 mph 4.3 mph 92% 0 in 0.00 W/m2 unknown
23:29 60.8 °F 57.2 °F 30.1 in ENE 5 mph 6.8 mph 90% 0 in 0.00 W/m2 unknown
23:34 60.8 °F 57.2 °F 30.1 in ENE 5 mph 6.8 mph 90% 0 in 0.00 W/m2 unknown
23:39 60.8 °F 57.2 °F 30.1 in ENE 5 mph 6.8 mph 90% 0 in 0.00 W/m2 unknown
23:44 60.8 °F 57.2 °F 30.1 in NE 5 mph 6.8 mph 90% 0 in 0.00 W/m2 unknown
23:49 60.8 °F 57.2 °F 30.1 in ENE 5.6 mph 6.8 mph 90% 0 in 0.00 W/m2 unknown
23:54 60.8 °F 57.2 °F 30.1 in ENE 5 mph 8.1 mph 90% 0 in 0.00 W/m2 unknown
23:59 60.8 °F 57.2 °F 30.1 in ENE 5.6 mph 8.1 mph 90% 0 in 0.00 W/m2 unknown
Stazione Meteorologica MeteoMincio Rivalta s/M (MN)
Con i complimenti di Weather Underground - 4 mb



METEO PILLOLE
Il luogo più freddo della Terra
Stazione Sovetskaja - Antartide
La temperatura media nel 1957/58 è stata di - 57.3°C.
Share

Non seguire questo link o sarai bannato dal sito!